Regional Weather Roundup
Issued by NWS

Home | Current Version | Previous Version | Text Only | Print | Product List | Glossary Off
Versions: 1 2 3 4 5 6 7 8 9 10 11 12 13 14 15 16 17 18 19 20 21 22 23 24 25 26 27 28 29 30 31 32 33 34 35 36 37 38 39 40 41 42 43 44 45 46 47 48 49 50

000
ASUS44 KMEG 290400
RWRTN
TENNESSEE HOURLY STATE WEATHER ROUNDUP
NATIONAL WEATHER SERVICE MEMPHIS TN
1100 PM CDT MON JUL 28 2014

TNZ002-004-019-021-049-052-054-088>092-290500-
WEST TENNESSEE

CITY           SKY/WX    TMP DP  RH WIND       PRES   REMARKS
MEMPHIS INTL   PTCLDY    76  64  66 CALM      30.06S
NWS MEMPHIS      N/A     71 N/A N/A MISG        N/A
JACKSON        CLEAR     68  63  84 CALM      30.07R
DYERSBURG      PTCLDY    72  57  60 N6        30.08S
UNION CITY     CLEAR     66  63  88 N5        30.07S
PARIS          CLEAR     64  57  77 N3        30.08R
LEXINGTON      CLEAR     66  61  82 CALM      30.06R
SAVANNAH       CLEAR     66  66 100 CALM      30.06S
$$

TNZ008-025-027-028-033-062-065-066-290500-
NORTH MIDDLE TENNESSEE

CITY           SKY/WX    TMP DP  RH WIND       PRES   REMARKS
NASHVILLE      PTCLDY    71  59  65 N8        30.05R
CLARKSVILLE    CLEAR     66  58  75 N6        30.06R
COOKEVILLE     MOCLDY    63  63 100 CALM      30.03S
CROSSVILLE     PTCLDY    64  58  80 CALM      30.06R
$$

TNZ061-075-076-078-094-096-097-290500-
SOUTH MIDDLE TENNESSEE

CITY           SKY/WX    TMP DP  RH WIND       PRES   REMARKS
FAYETTEVILLE   CLEAR     68  59  73 N13G25    30.04S
TULLAHOMA      CLEAR     63  57  82 CALM      30.05S
WINCHESTER     CLEAR     64  63  94 CALM      30.04S
MCMINNVILLE    CLEAR     66  61  82 CALM      30.04S
COLUMBIA       MOCLDY    72  63  73 CALM      30.04R
SHELBYVILLE    PTCLDY    66  63  88 CALM      30.05R
$$

TNZ017-018-042-046-047-290500-
NORTHEAST TENNESSEE

CITY           SKY/WX    TMP DP  RH WIND       PRES   REMARKS
TRI CITIES     CLEAR     63  55  75 CALM      30.00S
ELIZABETHTON   MOCLDY    57  55  94 CALM        N/A
$$

TNZ012-013-036-069-073-074-290500-
CENTRAL EAST TENNESSEE

CITY           SKY/WX    TMP DP  RH WIND       PRES   REMARKS
KNOXVILLE      MOCLDY    69  59  70 N5        30.00S
OAK RIDGE      MOCLDY    70  58  65 CALM      30.02R
GATLINBURG     MOCLDY    66  61  82 N3        30.00S
$$

TNZ083-085-099-290500-
SOUTHEAST TENNESSEE

CITY           SKY/WX    TMP DP  RH WIND       PRES   REMARKS
CHATTANOOGA    PTCLDY    70  61  73 NW5       30.01S
$$

SKY/WX REPORTED AS FAIR MEANS FEW OR NO CLOUDS BELOW
12 THOUSAND FEET.



USA.gov is the U.S. government's official web portal to all federal, state and local government web resources and services.